Location: *
(43.4667°N, 11.6833°E)
Time: 20:27:51
(UTC+00:00)

Cosmos 1943 Rocket - Pass Details

Date: 19 July 2019
Orbit: 813 x 843 km, 71.0° (Epoch: 23 August)

Event Time Altitude Azimuth Distance (km) Brightness Sun altitude
Rises 23:03:52 0° 342° (NNW) 3,346 6.6 -25.7°
Reaches altitude 10° 23:06:38 10° 355° (N) 2,412 5.6 -25.7°
Maximum altitude 23:11:21 28° 53° (NE) 1,492 3.8 -25.7°
Enters shadow 23:14:19 18° 98° (E) 1,913 3.9 -25.8°
